Tracking 29892 objects as of 21-Nov-2024
HD Live streaming from Space Station
objects crossing your sky now

COSMOS 886 DEB

Track COSMOS 886 DEB now!
10-day predictions


NORAD ID: 9958
Int'l Code: 1976-126AY
Perigee: 735.0 km
Apogee: 2,116.1 km
Inclination: 65.9 °
Period: 114.2 minutes
Semi major axis: 7796 km
RCS: 0.0405 m2 (small)
Launch date: December 27, 1976
Source: Commonwealth of Independent States (former USSR) (CIS)
Launch site: TYURATAM MISSILE AND SPACE COMPLEX (TTMTR)

Note: This is SATELLITE DEBRIS
Your satellite tracking list
Your tracking list is empty




NASA's NSSDC Master Catalog

Two Line Element Set (TLE):
1 09958U 76126AY  24325.24972603  .00000669  00000-0  88234-3 0  9991
2 09958  65.8746 262.9898 0885695 107.1823 262.8009 12.61096893191021
Source of the keplerian elements: AFSPC